Wind_Speed
4 3 3 3 3 4 5 6 5 5 5 5 6 6 5 5 5 6 6 6 6 6 6 6 6 6 6 6 5 5 5 6 6 5 5 5 5 5 4 4 5 5 4 5 5 5 5 5 5
3 3 3 3 3 3 4 5 6 6 6 6 6 6 6 6 6 6 6 6 6 7 7 7 7 7 7 7 6 6 6 6 6 6 6 6 7 7 6 6 5 5 5 5 5 5 5 5 5
3 3 3 4 3 3 5 5 5 6 6 6 7 7 7 7 7 7 7 7 7 6 7 6 7 7 7 6 7 7 7 7 7 7 7 7 7 6 6 6 6 5 5 5 6 5 5 5 6
4 3 4 4 4 4 4 5 4 5 6 7 7 7 7 7 7 7 7 7 8 7 7 7 7 7 6 6 7 8 8 8 7 7 7 7 7 6 6 6 6 5 5 5 6 6 6 6 6
4 3 4 4 4 5 5 5 5 5 6 7 6 6 7 7 7 7 8 8 8 8 8 7 7 7 7 7 8 8 8 8 9 8 8 8 8 7 6 5 6 6 6 6 6 6 7 7 7
4 4 4 4 5 5 5 6 6 5 6 7 6 6 7 7 7 8 8 8 8 8 8 8 8 8 8 8 9 9 9 9 9 9 9 8 8 8 7 7 6 7 7 7 7 7 7 7 7
5 5 5 5 6 6 6 6 6 6 7 7 7 6 6 6 7 8 8 8 9 9 8 8 9 8 8 9 9 9 10 10 9 9 9 9 9 8 8 7 7 7 8 8 8 8 8 7 8
6 5 6 6 6 6 6 7 7 7 7 8 8 7 7 7 7 8 8 9 9 10 9 8 8 8 8 9 9 9 10 10 10 10 9 9 9 9 9 8 8 8 8 8 9 8 8 8 9
6 6 6 6 6 7 7 8 7 7 8 8 8 8 8 8 8 8 9 9 9 10 9 9 9 9 9 9 9 9 9 9 10 10 10 10 9 9 9 9 9 9 9 9 9 8 9 9 8
6 7 7 8 8 7 8 8 7 7 8 8 8 8 8 9 8 8 9 9 9 9 8 8 8 8 8 8 9 9 9 9 9 9 10 9 9 8 9 9 8 8 9 9 9 9 9 8 8
7 8 7 9 8 8 8 8 8 8 9 8 8 8 8 9 8 9 9 9 9 8 8 7 8 8 8 8 9 9 9 9 9 9 9 9 8 8 8 9 9 9 9 9 9 9 9 9 9
8 7 8 8 7 8 9 9 9 9 9 9 9 9 9 9 9 9 9 8 8 8 8 9 8 8 8 8 9 9 9 9 9 8 8 8 8 9 8 8 9 9 9 9 10 10 11 11 11
8 7 8 7 8 8 9 9 9 8 9 9 9 9 9 9 9 8 8 8 8 9 8 8 7 7 7 7 8 7 7 8 8 8 7 8 8 8 8 8 8 8 9 9 9 10 10 11 11
7 7 7 7 8 8 8 9 9 8 8 8 8 8 8 8 7 7 7 7 8 8 7 7 7 6 6 7 7 7 7 7 7 8 7 7 8 8 8 8 8 8 9 10 10 10 10 11 11
6 7 7 6 7 7 8 8 8 8 8 8 8 7 7 7 7 7 6 6 6 7 7 7 7 6 7 7 7 7 6 7 7 8 7 7 8 8 8 8 8 9 9 10 10 11 11 12 12
5 6 6 6 6 7 7 7 8 8 8 8 7 7 7 7 7 7 7 6 6 6 7 7 8 7 7 7 7 7 7 7 8 8 8 7 8 8 8 8 8 9 9 10 10 11 10 11 11
5 5 5 6 7 7 7 7 7 7 7 8 8 8 7 7 6 6 6 6 6 7 7 7 8 8 8 8 8 8 8 8 8 9 9 8 8 8 9 9 9 9 9 9 9 10 10 10 11
5 5 5 5 5 6 7 7 7 7 7 8 8 8 7 7 6 6 6 7 7 7 7 7 8 8 8 8 8 8 8 9 9 9 9 9 9 9 9 9 9 9 8 9 9 10 10 11 12
5 5 5 5 5 6 6 6 7 7 8 7 8 7 7 7 7 7 7 7 7 8 8 7 8 8 8 8 8 8 8 9 9 9 9 9 9 9 9 9 9 9 9 10 10 10 11 12 12
5 4 5 7 7 7 6 6 6 7 7 7 7 7 8 8 8 8 9 9 9 8 9 9 8 8 8 8 8 8 8 8 8 8 9 9 9 9 9 9 9 10 10 11 11 11 11 12 12
4 5 5 6 5 6 7 7 6 6 6 7 7 7 7 8 9 9 9 9 9 9 9 9 9 8 8 8 8 8 9 8 9 9 9 9 9 9 9 10 11 11 11 11 11 11 11 11 12
4 4 4 4 4 5 6 7 8 8 8 7 7 7 8 9 9 9 9 8 8 9 9 9 9 8 8 9 9 9 8 9 9 10 10 9 9 10 11 11 12 12 12 12 11 11 11 12 12
4 3 4 4 4 5 6 8 9 9 10 9 9 9 9 9 10 10 10 9 9 9 9 9 9 9 9 9 10 10 10 10 10 10 10 10 11 11 11 12 12 12 12 12 11 11 12 12 12
4 4 3 4 4 6 7 8 9 11 11 11 10 11 10 10 10 10 10 10 10 10 9 9 10 10 10 10 10 11 11 10 11 11 11 11 12 12 12 12 12 12 12 11 12 12 12 13 13
5 4 4 5 6 7 8 10 10 11 11 12 12 11 11 11 11 11 11 11 10 10 10 11 11 11 11 11 12 12 12 12 12 12 12 13 13 13 13 13 12 12 12 12 13 13 13 13 14
5 5 5 5 6 8 10 12 12 11 11 12 12 12 12 12 12 12 12 11 11 11 11 12 12 12 12 13 13 13 13 13 13 13 14 14 14 14 14 14 13 14 14 14 14 14 14 14 14
7 7 7 7 7 9 11 13 13 12 13 13 13 13 13 13 13 13 13 13 12 12 13 13 13 13 13 13 13 14 13 14 14 15 15 15 15 14 15 15 15 15 15 15 15 15 15 15 16
8 9 9 9 9 9 11 13 15 14 14 14 14 14 14 14 14 14 14 14 14 14 14 14 14 14 14 14 14 14 15 15 16 16 16 16 16 16 16 17 17 17 16 16 16 16 16 17 17
10 11 11 11 10 10 11 14 15 16 15 15 16 16 15 15 15 16 16 15 16 16 16 16 16 16 16 16 16 16 16 16 17 17 17 17 17 17 17 18 18 18 18 17 17 17 17 17 17
13 13 13 13 13 13 14 16 17 17 16 17 17 17 17 16 16 17 17 17 17 17 17 17 18 17 18 18 18 18 18 17 17 17 17 18 18 18 18 18 18 18 18 19 19 19 18 17 17
Wind_Direction
231 236 238 243 245 239 239 248 249 241 244 253 258 255 255 255 253 250 249 248 243 242 243 247 249 252 250 249 256 266 269 269 271 274 275 276 271 269 273 279 281 278 273 266 262 259 250 252 248
228 237 239 244 240 240 247 253 253 244 245 252 260 256 257 259 257 259 257 257 255 252 251 251 255 255 256 255 259 262 271 279 276 276 277 280 277 273 269 276 279 278 273 270 260 258 254 255 252
239 242 232 243 252 261 264 268 259 247 248 252 258 257 259 258 256 258 259 260 263 261 257 255 258 257 255 255 259 264 270 276 276 274 273 278 277 279 273 271 274 279 280 276 265 261 256 257 256
244 248 254 263 273 283 274 274 273 258 256 255 258 261 258 259 258 257 258 258 261 260 260 256 256 257 257 257 260 265 270 271 273 276 275 276 274 275 275 276 273 275 282 279 267 260 257 257 257
256 258 266 269 274 286 289 280 272 261 261 259 266 261 259 263 262 259 257 261 261 258 260 261 260 261 260 263 266 270 269 268 271 271 269 270 270 267 270 276 272 272 279 279 271 265 262 258 256
257 259 264 271 280 282 277 269 270 259 259 264 268 263 259 264 262 260 262 264 265 264 264 264 265 265 263 266 268 271 271 274 273 271 269 266 264 264 269 272 268 270 274 276 273 268 263 258 255
254 257 260 269 277 282 276 272 264 264 264 266 267 271 267 269 271 267 264 266 266 265 264 266 267 266 264 264 267 271 273 276 274 272 266 261 258 260 269 271 266 267 267 270 270 270 261 259 260
250 257 259 269 276 279 275 272 271 271 269 268 268 270 266 275 279 276 272 272 271 269 269 266 267 265 263 262 269 274 275 273 272 271 270 262 261 263 266 270 266 267 268 267 270 270 264 264 266
250 257 258 264 274 278 273 272 270 270 270 269 269 269 270 275 280 279 277 275 274 271 268 266 267 265 264 266 272 276 277 276 274 273 269 264 265 267 265 270 267 266 269 273 273 271 270 268 266
247 257 264 266 270 273 273 275 276 275 273 273 272 273 275 276 280 280 279 280 278 277 276 275 270 268 268 275 278 279 279 281 276 275 273 270 273 274 273 275 270 270 269 273 275 273 270 269 269
242 251 261 268 268 269 275 277 277 282 282 279 275 275 279 276 278 279 279 284 281 280 279 277 276 273 276 283 283 283 284 285 283 279 276 275 276 280 280 275 272 270 272 273 274 271 269 270 272
245 249 257 264 266 271 275 275 276 280 281 281 276 275 279 278 274 279 279 275 279 281 281 280 280 276 276 284 284 283 285 286 286 285 280 277 280 280 282 278 272 268 273 274 272 270 270 270 273
244 249 258 268 269 271 273 273 277 277 277 278 279 276 276 277 273 272 276 282 285 286 283 286 285 281 281 283 284 283 283 285 284 286 282 280 283 285 283 283 281 272 270 273 272 270 272 272 275
246 249 257 261 267 272 273 273 275 276 279 276 275 275 275 274 271 274 277 283 289 287 287 287 289 289 288 292 288 286 284 283 283 282 283 285 284 284 281 278 281 281 274 276 274 271 274 272 273
250 256 263 266 273 277 278 276 276 281 282 279 278 273 272 273 271 271 280 285 289 290 287 287 285 289 295 296 298 296 291 290 290 292 290 288 286 283 281 284 285 286 286 283 281 280 279 277 275
257 262 264 268 271 275 281 280 284 286 286 285 284 278 271 268 267 267 274 281 290 296 289 285 284 284 289 292 295 293 293 292 292 293 295 292 291 291 288 289 287 287 289 288 286 283 285 281 277
260 263 273 277 277 281 283 289 288 287 286 290 291 282 273 260 261 266 271 276 286 296 296 291 289 284 283 290 292 291 293 291 293 293 296 296 294 294 293 293 292 292 292 290 289 290 289 288 281
266 268 281 293 296 290 291 293 291 287 288 291 291 285 272 262 261 266 269 275 285 293 294 293 287 286 285 291 291 291 293 290 290 293 295 296 297 298 297 295 292 294 298 298 294 292 289 290 287
259 273 284 290 295 297 297 296 295 293 294 294 288 284 278 266 266 271 275 281 286 291 293 290 285 285 287 293 295 293 293 291 291 292 296 299 300 298 297 297 298 301 303 303 298 295 296 295 290
271 276 288 294 291 291 300 303 299 297 296 293 289 286 284 282 277 277 281 284 287 284 288 291 292 290 287 291 295 295 292 290 292 293 296 296 298 301 299 301 302 302 302 303 304 303 302 301 298
277 283 291 297 296 298 302 305 310 307 300 295 291 288 287 289 283 279 279 284 288 289 291 291 289 288 290 292 292 296 292 291 293 294 297 297 298 302 302 303 301 299 298 300 303 304 303 302 302
269 277 287 290 294 302 305 305 308 307 305 302 296 293 291 290 287 283 280 284 288 291 291 289 290 291 292 293 295 298 297 297 297 298 297 297 299 301 301 299 299 299 297 299 301 301 303 303 302
269 280 289 292 296 307 310 298 299 299 301 301 296 294 294 293 290 286 280 279 283 285 288 286 289 290 288 288 291 296 297 295 297 298 296 296 297 298 299 300 299 298 297 298 301 302 302 302 301
263 265 284 298 300 306 304 292 292 293 296 296 295 295 295 294 291 286 281 278 278 281 283 284 287 290 291 290 290 293 294 295 296 295 294 295 297 298 300 302 302 300 298 298 299 299 300 300 298
266 272 294 302 307 309 302 294 289 293 296 296 296 295 294 295 292 285 280 278 277 279 281 282 284 288 288 287 288 289 291 293 293 293 291 291 294 297 297 299 300 299 298 298 299 298 300 298 297
275 273 270 271 279 290 294 292 293 299 297 295 294 291 289 289 289 284 280 279 279 279 280 281 282 284 284 285 286 286 289 291 293 291 290 290 293 296 296 296 296 297 296 295 295 297 298 297 298
273 274 274 270 276 278 286 290 294 297 294 293 294 293 289 286 285 282 280 279 278 279 280 281 281 282 282 283 284 283 286 290 292 292 290 290 292 293 294 296 296 295 294 293 293 295 296 297 296
272 276 278 273 272 273 281 287 292 292 294 294 293 292 290 287 283 281 279 279 279 280 281 280 281 282 282 282 284 283 284 287 289 289 289 288 290 292 292 293 294 294 293 292 292 294 295 296 296
278 275 275 274 273 270 272 279 287 290 290 290 291 289 288 287 285 284 282 281 281 282 280 279 281 281 280 281 282 283 285 285 288 288 289 289 289 290 291 292 293 294 293 292 291 292 293 295 294
280 277 276 274 274 273 276 281 284 286 286 288 289 289 288 286 283 283 283 283 282 281 279 279 279 279 278 279 281 282 283 283 285 288 290 289 289 289 290 292 292 292 292 291 291 290 290 291 291
Height
5871 5872 5873 5874 5875 5874 5873 5874 5873 5874 5875 5875 5875 5875 5876 5876 5878 5880 5878 5877 5877 5877 5878 5878 5878 5878 5878 5879 5879 5879 5879 5879 5879 5879 5879 5879 5879 5879 5879 5879 5879 5879 5878 5878 5878 5878 5878 5878 5879
5871 5872 5873 5873 5873 5873 5873 5873 5873 5873 5874 5874 5874 5874 5875 5875 5876 5876 5876 5876 5877 5877 5877 5877 5877 5877 5878 5878 5878 5878 5878 5878 5878 5878 5877 5877 5877 5877 5877 5878 5878 5878 5877 5877 5877 5877 5877 5877 5878
5871 5872 5873 5873 5872 5872 5872 5872 5872 5872 5873 5873 5873 5874 5874 5874 5875 5875 5875 5875 5875 5876 5876 5876 5876 5876 5876 5876 5877 5877 5877 5877 5876 5876 5876 5876 5876 5876 5876 5876 5877 5877 5877 5876 5876 5876 5876 5877 5877
5871 5872 5872 5872 5871 5871 5871 5871 5871 5871 5872 5872 5872 5873 5873 5873 5873 5874 5873 5874 5874 5875 5875 5875 5875 5875 5875 5875 5876 5876 5875 5875 5875 5875 5875 5875 5875 5875 5875 5875 5875 5875 5876 5876 5875 5875 5875 5876 5876
5870 5871 5871 5871 5870 5870 5870 5870 5870 5871 5871 5871 5872 5872 5872 5872 5872 5872 5872 5873 5873 5874 5874 5874 5874 5874 5874 5874 5874 5874 5874 5874 5873 5873 5873 5873 5873 5873 5874 5874 5874 5874 5875 5875 5874 5874 5874 5874 5875
5870 5870 5870 5870 5870 5870 5870 5870 5870 5870 5870 5870 5870 5871 5871 5871 5871 5871 5871 5872 5872 5872 5872 5872 5872 5872 5872 5872 5873 5872 5872 5872 5872 5872 5872 5872 5872 5872 5873 5873 5873 5873 5873 5873 5873 5873 5873 5873 5873
5870 5869 5869 5869 5869 5869 5869 5869 5869 5869 5869 5870 5870 5870 5870 5870 5870 5870 5870 5871 5871 5871 5871 5871 5871 5871 5871 5871 5871 5871 5871 5870 5870 5870 5870 5870 5871 5871 5871 5871 5871 5872 5872 5872 5872 5872 5872 5872 5872
5868 5869 5868 5868 5868 5868 5869 5868 5868 5868 5868 5869 5869 5869 5869 5869 5869 5869 5869 5869 5869 5869 5870 5870 5869 5869 5869 5869 5869 5869 5869 5868 5868 5868 5868 5869 5869 5869 5870 5870 5870 5870 5870 5870 5870 5870 5870 5871 5871
5866 5868 5867 5867 5867 5867 5867 5867 5867 5867 5867 5867 5867 5868 5868 5868 5868 5868 5868 5868 5868 5867 5867 5868 5868 5867 5867 5867 5868 5868 5867 5867 5867 5866 5867 5867 5867 5868 5868 5868 5868 5868 5868 5868 5868 5868 5869 5869 5869
5865 5866 5866 5866 5866 5866 5865 5866 5866 5866 5866 5866 5866 5867 5867 5867 5867 5867 5867 5867 5866 5866 5866 5866 5866 5866 5866 5866 5866 5866 5866 5865 5865 5865 5865 5865 5865 5866 5866 5866 5866 5866 5867 5867 5867 5867 5867 5867 5868
5864 5864 5865 5864 5864 5864 5864 5864 5864 5865 5865 5865 5865 5865 5865 5865 5865 5865 5865 5865 5865 5865 5865 5864 5865 5864 5864 5864 5864 5864 5864 5864 5864 5864 5864 5864 5864 5864 5864 5864 5864 5865 5865 5865 5865 5865 5865 5866 5866
5862 5863 5863 5863 5863 5863 5863 5863 5863 5864 5864 5864 5863 5864 5864 5864 5864 5864 5864 5864 5864 5863 5863 5863 5863 5863 5863 5863 5863 5863 5863 5862 5862 5862 5862 5862 5862 5862 5862 5862 5863 5863 5863 5863 5863 5863 5864 5864 5864
5861 5861 5861 5861 5862 5862 5862 5862 5862 5862 5862 5862 5862 5862 5862 5863 5863 5863 5863 5862 5862 5862 5862 5862 5862 5862 5862 5862 5862 5861 5861 5861 5861 5861 5861 5861 5861 5861 5860 5860 5861 5861 5861 5861 5862 5861 5862 5862 5862
5859 5860 5860 5860 5860 5860 5860 5860 5861 5861 5861 5861 5861 5861 5861 5861 5861 5861 5861 5861 5861 5861 5861 5860 5861 5861 5861 5860 5860 5860 5860 5860 5860 5860 5859 5859 5859 5859 5859 5859 5859 5859 5859 5859 5859 5859 5859 5859 5859
5858 5859 5859 5859 5859 5859 5860 5859 5859 5859 5859 5859 5859 5859 5859 5860 5860 5860 5860 5860 5860 5860 5860 5859 5860 5860 5859 5859 5859 5859 5859 5859 5859 5858 5858 5858 5858 5857 5857 5857 5857 5857 5857 5857 5857 5857 5857 5857 5857
5857 5858 5858 5858 5858 5858 5860 5859 5858 5858 5858 5858 5858 5858 5858 5858 5859 5859 5859 5859 5859 5859 5859 5859 5858 5858 5858 5858 5858 5858 5858 5858 5858 5857 5857 5857 5857 5856 5856 5856 5856 5855 5855 5855 5855 5855 5855 5855 5854
5856 5856 5857 5858 5857 5857 5858 5857 5857 5857 5857 5857 5857 5857 5857 5857 5857 5857 5858 5858 5858 5858 5858 5857 5857 5857 5857 5857 5857 5857 5857 5857 5856 5856 5855 5855 5855 5855 5854 5854 5854 5854 5854 5853 5853 5853 5853 5852 5852
5856 5856 5856 5857 5856 5856 5856 5856 5856 5856 5856 5856 5855 5855 5855 5855 5856 5856 5856 5857 5857 5857 5856 5856 5856 5856 5856 5855 5855 5855 5855 5855 5855 5855 5854 5854 5853 5853 5853 5852 5852 5852 5852 5851 5851 5851 5850 5850 5849
5855 5855 5856 5856 5856 5856 5856 5855 5855 5855 5855 5855 5854 5854 5854 5854 5855 5855 5855 5855 5855 5855 5855 5854 5853 5854 5854 5854 5854 5854 5854 5854 5853 5853 5853 5852 5852 5851 5851 5851 5850 5850 5850 5849 5849 5848 5848 5847 5847
5854 5855 5855 5855 5854 5855 5855 5854 5854 5854 5854 5853 5853 5853 5853 5853 5853 5854 5854 5854 5854 5854 5853 5853 5852 5852 5852 5852 5852 5852 5852 5852 5852 5851 5851 5851 5850 5850 5849 5849 5849 5848 5848 5847 5847 5846 5846 5845 5844
5853 5854 5854 5854 5853 5853 5854 5854 5853 5853 5853 5852 5852 5852 5852 5852 5852 5852 5852 5852 5852 5852 5852 5851 5851 5851 5851 5851 5851 5851 5850 5850 5850 5850 5849 5849 5848 5848 5848 5847 5847 5846 5846 5845 5845 5844 5843 5843 5842
5853 5853 5853 5853 5853 5853 5853 5852 5852 5852 5851 5851 5851 5851 5851 5851 5850 5850 5850 5850 5850 5850 5850 5850 5850 5849 5849 5849 5849 5849 5849 5848 5848 5848 5847 5847 5847 5846 5846 5845 5845 5844 5844 5843 5842 5841 5841 5840 5839
5852 5852 5853 5853 5852 5852 5852 5851 5852 5850 5850 5850 5850 5850 5849 5849 5849 5848 5848 5849 5848 5848 5848 5848 5848 5848 5847 5847 5847 5847 5847 5846 5846 5846 5845 5845 5845 5844 5844 5843 5842 5842 5841 5840 5840 5839 5838 5838 5837
5851 5852 5852 5851 5851 5852 5851 5851 5850 5849 5849 5849 5849 5848 5848 5847 5847 5846 5846 5846 5846 5846 5846 5846 5846 5845 5845 5845 5845 5845 5845 5844 5844 5844 5843 5843 5843 5842 5841 5840 5840 5839 5838 5838 5837 5836 5835 5835 5834
5850 5851 5851 5850 5850 5851 5851 5850 5850 5848 5848 5847 5847 5846 5846 5845 5845 5844 5844 5844 5844 5844 5844 5844 5843 5843 5843 5843 5843 5842 5842 5842 5841 5841 5841 5840 5840 5839 5839 5838 5837 5836 5836 5835 5834 5833 5832 5831 5831
5848 5849 5850 5850 5850 5850 5849 5848 5848 5847 5846 5846 5845 5844 5844 5843 5843 5842 5842 5842 5842 5842 5842 5841 5841 5841 5841 5840 5840 5840 5839 5839 5838 5838 5838 5837 5837 5836 5835 5835 5834 5833 5832 5832 5831 5830 5829 5828 5827
5847 5847 5848 5848 5848 5848 5848 5846 5845 5844 5844 5843 5843 5842 5841 5841 5840 5840 5839 5839 5839 5839 5839 5839 5839 5838 5838 5837 5836 5837 5836 5836 5835 5835 5834 5834 5833 5833 5832 5831 5831 5830 5829 5828 5827 5826 5825 5824 5823
5846 5845 5845 5845 5845 5846 5846 5844 5843 5842 5841 5841 5840 5839 5838 5838 5837 5837 5837 5836 5836 5836 5836 5835 5835 5835 5835 5834 5833 5833 5833 5832 5832 5831 5831 5830 5830 5829 5828 5827 5827 5826 5825 5824 5823 5822 5821 5820 5819
5843 5843 5843 5843 5843 5843 5843 5844 5840 5839 5838 5838 5837 5836 5835 5835 5834 5834 5833 5833 5833 5832 5832 5832 5831 5831 5831 5830 5830 5829 5829 5828 5828 5827 5826 5826 5825 5825 5824 5823 5822 5821 5821 5820 5819 5818 5817 5816 5815
5840 5840 5840 5840 5840 5840 5839 5841 5837 5836 5835 5834 5833 5833 5832 5831 5831 5830 5829 5829 5828 5828 5827 5827 5827 5827 5826 5826 5826 5825 5825 5824 5823 5823 5822 5821 5821 5820 5819 5819 5818 5817 5816 5815 5814 5813 5812 5811 5810